Weather History for Truckee-Tahoe, CA

Change the Weather History Date:

Friday, May 17, 2013

  Actual Average Record
Temperature  
Mean Temperature 44 °F -  
Max Temperature 57 °F 63 °F 89 °F (2003)
Min Temperature 32 °F 31 °F 21 °F (1971)
Degree Days  
Heating Degree Days 20    
Moisture  
Dew Point 30 °F    
Average Humidity 66    
Maximum Humidity 100    
Minimum Humidity 31    
Precipitation  
Precipitation 0.00 in - - ()
Sea Level Pressure  
Sea Level Pressure 30.05 in    
Wind  
Wind Speed 6 mph (SW)    
Max Wind Speed 16 mph    
Max Gust Speed 25 mph    
Visibility 10 miles    
Events      
Averages and records for this station are not official NWS values.
T = Trace of Precipitation, MM = Missing Value Source: NWS Daily Summary

Daily Weather History Graph

Daily Weather History Graph

Search for Another Location

Airport:

Trip Planner

Search our weather history database for the weather conditions in past years. The results will help you decide how hot, cold, wet, or windy it might be!

Date:

Astronomy

May. 17, 2013 Rise Set
Actual Time 5:44 AM PDT 8:09 PM PDT
Civil Twilight 5:14 AM PDT 8:40 PM PDT
Nautical Twilight 4:36 AM PDT 9:17 PM PDT
Astronomical Twilight 3:55 AM PDT 9:59 PM PDT
Moon 12:21 PM PDT (5/17) 1:05 AM PDT (5/17)
Length of Visible Light 15h 25m
Length of Day
14h 24m
Waxing Crescent, 46% of the Moon is Illuminated
May 17
Waxing Crescent
May 17
First Quarter
May 24
Full
May 31
Last Quarter
Jun 8
New

Hourly Weather History & Observations

Time (PDT) Temp. Windchill Dew Point Humidity Pressure Visibility Wind Dir Wind Speed Gust Speed Precip Events Conditions
12:15 AM 42.8 °F 38.0 °F 32.0 °F 66% 30.02 in 10.0 mi South 8.1 mph - N/A   Overcast
12:35 AM 41.0 °F 38.0 °F 32.0 °F 70% 30.02 in 10.0 mi SW 4.6 mph - N/A   Mostly Cloudy
12:55 AM 41.0 °F 39.0 °F 32.0 °F 70% 30.01 in 10.0 mi SW 3.5 mph - N/A   Scattered Clouds
1:15 AM 41.0 °F - 32.0 °F 70% 30.01 in 10.0 mi Calm Calm - N/A   Scattered Clouds
1:35 AM 39.2 °F - 32.0 °F 75% 30.01 in 10.0 mi Calm Calm - N/A   Clear
1:55 AM 39.2 °F 34.2 °F 32.0 °F 75% 30.01 in 10.0 mi South 6.9 mph - N/A   Partly Cloudy
2:15 AM 37.4 °F 33.8 °F 32.0 °F 81% 30.00 in 10.0 mi SSE 4.6 mph - N/A   Mostly Cloudy
2:35 AM 37.4 °F 34.9 °F 32.0 °F 81% 30.00 in 10.0 mi WSW 3.5 mph - N/A   Mostly Cloudy
2:55 AM 35.6 °F 32.8 °F 32.0 °F 87% 30.00 in 10.0 mi WSW 3.5 mph - N/A   Scattered Clouds
3:15 AM 35.6 °F 30.7 °F 32.0 °F 87% 30.00 in 10.0 mi East 5.8 mph - N/A   Clear
3:35 AM 32.0 °F 28.7 °F 30.2 °F 93% 30.00 in 10.0 mi SW 3.5 mph - N/A   Partly Cloudy
3:55 AM 33.8 °F 29.6 °F 32.0 °F 93% 30.00 in 10.0 mi SSW 4.6 mph - N/A   Partly Cloudy
4:15 AM 33.8 °F - 30.2 °F 87% 30.00 in 10.0 mi Calm Calm - N/A   Clear
4:35 AM 32.0 °F - 30.2 °F 93% 30.00 in 10.0 mi Calm Calm - N/A   Clear
4:55 AM 33.8 °F 30.8 °F 30.2 °F 87% 30.00 in 10.0 mi SSE 3.5 mph - N/A   Clear
5:15 AM 32.0 °F - 32.0 °F 100% 30.00 in 10.0 mi Calm Calm - N/A   Clear
5:35 AM 32.0 °F - 30.2 °F 93% 29.99 in 10.0 mi Calm Calm - N/A   Clear
5:55 AM 32.0 °F - 28.4 °F 87% 30.00 in 10.0 mi Calm Calm - N/A   Clear
6:15 AM 32.0 °F - 28.4 °F 87% 30.00 in 10.0 mi Calm Calm - N/A   Clear
6:35 AM 32.0 °F 27.5 °F 28.4 °F 87% 30.00 in 10.0 mi ESE 4.6 mph - N/A   Clear
6:45 AM 33.8 °F - 32.0 °F 93% 30.01 in 10.0 mi Calm Calm - N/A   Scattered Clouds
7:45 AM 41.0 °F 37.1 °F 32.0 °F 70% 30.02 in 10.0 mi NNW 5.8 mph - N/A   Scattered Clouds
9:55 AM 50.0 °F - 32.0 °F 50% 30.01 in 10.0 mi South 8.1 mph - N/A   Scattered Clouds
10:55 AM 53.6 °F - 32.0 °F 44% 30.02 in 10.0 mi SSW 8.1 mph 18.4 mph N/A   Mostly Cloudy
11:45 AM 55.4 °F - 32.0 °F 41% 30.03 in 10.0 mi SW 12.7 mph 19.6 mph N/A   Mostly Cloudy
12:50 PM 55.4 °F - 26.6 °F 33% 30.03 in 10.0 mi WSW 11.5 mph 18.4 mph N/A   Mostly Cloudy
1:45 PM 57.2 °F - 26.6 °F 31% 30.04 in 10.0 mi WSW 11.5 mph 25.3 mph N/A   Mostly Cloudy
2:55 PM 55.4 °F - 26.6 °F 33% 30.04 in 10.0 mi West 16.1 mph 24.2 mph N/A   Scattered Clouds
3:50 PM 55.4 °F - 26.6 °F 33% 30.04 in 10.0 mi WSW 12.7 mph 23.0 mph N/A   Partly Cloudy
4:45 PM 55.4 °F - 26.6 °F 33% 30.06 in 10.0 mi West 15.0 mph 23.0 mph N/A   Partly Cloudy
5:45 PM 53.6 °F - 28.4 °F 38% 30.07 in 10.0 mi SE 13.8 mph 19.6 mph N/A   Scattered Clouds
5:55 PM 53.6 °F - 28.4 °F 38% 30.07 in 10.0 mi SSW 12.7 mph 19.6 mph N/A   Clear
6:15 PM 53.6 °F - 28.4 °F 38% 30.07 in 10.0 mi SW 15.0 mph - N/A   Clear
6:35 PM 51.8 °F - 28.4 °F 41% 30.08 in 10.0 mi WSW 10.4 mph - N/A   Clear
6:55 PM 50.0 °F - 28.4 °F 43% 30.08 in 10.0 mi SW 10.4 mph 20.7 mph N/A   Clear
7:15 PM 48.2 °F - 28.4 °F 46% 30.09 in 10.0 mi SW 11.5 mph 17.3 mph N/A   Clear
7:35 PM 48.2 °F - 28.4 °F 46% 30.09 in 10.0 mi WSW 10.4 mph - N/A   Clear
7:55 PM 46.4 °F 43.5 °F 30.2 °F 53% 30.10 in 10.0 mi WSW 5.8 mph - N/A   Clear
8:15 PM 46.4 °F 41.9 °F 32.0 °F 57% 30.11 in 10.0 mi West 9.2 mph - N/A   Clear
8:35 PM 44.6 °F 40.2 °F 30.2 °F 57% 30.12 in 10.0 mi WSW 8.1 mph - N/A   Clear
8:55 PM 42.8 °F 39.3 °F 30.2 °F 61% 30.13 in 10.0 mi WSW 5.8 mph - N/A   Clear
9:15 PM 44.6 °F 43.1 °F 32.0 °F 61% 30.14 in 10.0 mi West 3.5 mph - N/A   Clear
9:35 PM 42.8 °F 41.1 °F 32.0 °F 66% 30.15 in 10.0 mi West 3.5 mph - N/A   Clear
9:55 PM 35.6 °F 31.7 °F 28.4 °F 75% 30.15 in 10.0 mi SSE 4.6 mph - N/A   Clear
10:15 PM 35.6 °F 29.9 °F 28.4 °F 75% 30.15 in 10.0 mi SSE 6.9 mph - N/A   Clear
10:35 PM 35.6 °F 31.7 °F 28.4 °F 75% 30.16 in 10.0 mi SSE 4.6 mph - N/A   Clear
10:55 PM 35.6 °F 31.7 °F 28.4 °F 75% 30.16 in 10.0 mi SE 4.6 mph - N/A   Clear
11:15 PM 32.0 °F 27.5 °F 26.6 °F 80% 30.15 in 10.0 mi SSE 4.6 mph - N/A   Clear
11:35 PM 33.8 °F - 28.4 °F 81% 30.15 in 10.0 mi Calm Calm - N/A   Clear
11:55 PM 32.0 °F - 28.4 °F 87% 30.15 in 10.0 mi Calm Calm - N/A   Clear